CST,Max TemperatureF,Mean TemperatureF,Min TemperatureF,Max Dew PointF,MeanDew PointF,Min DewpointF,Max Humidity, Mean Humidity, Min Humidity, Max Sea Level PressureIn, Mean Sea Level PressureIn, Min Sea Level PressureIn, Max VisibilityMiles, Mean VisibilityMiles, Min VisibilityMiles, Max Wind SpeedMPH, Mean Wind SpeedMPH, Max Gust SpeedMPH,PrecipitationIn, CloudCover, Events, WindDirDegrees
2012-12-1,69,61,53,57,53,48,86,76,60,30.10,30.04,29.95,10,8,7,16,7,28,0.00,4,,156
2012-12-2,75,68,61,60,58,55,90,75,48,30.06,30.01,29.97,9,8,6,12,8,22,0.00,2,,182
2012-12-3,73,67,61,59,57,54,90,73,50,30.00,29.96,29.89,10,10,8,18,9,29,0.00,2,,176
2012-12-4,63,52,39,58,51,32,100,89,56,30.32,30.12,29.96,10,8,2,10,4,,0.49,6,Rain-Thunderstorm,353
2012-12-5,59,46,33,36,32,28,96,61,33,30.35,30.24,30.10,10,10,10,10,3,,0.00,0,,106
2012-12-6,63,52,41,50,42,34,94,72,53,30.09,29.97,29.88,10,10,7,7,3,,0.03,3,,132
2012-12-7,64,56,48,53,50,47,96,81,58,29.89,29.85,29.79,10,7,5,9,1,,0.00,5,,199
2012-12-8,55,52,48,53,49,46,100,89,75,29.94,29.88,29.83,8,4,0,9,2,,0.00,6,Fog,79
2012-12-9,61,51,39,59,51,30,100,91,65,29.93,29.80,29.73,10,4,0,10,6,20,0.03,8,Fog-Rain-Thunderstorm,36
2012-12-10,39,31,21,32,19,16,88,69,56,30.12,30.02,29.93,10,10,8,10,7,23,0.00,4,,319
2012-12-11,44,30,17,23,16,8,93,64,24,30.25,30.16,30.10,10,9,6,6,2,,0.00,0,,175
2012-12-12,52,38,25,22,15,12,75,44,21,30.35,30.28,30.24,10,10,8,10,3,,0.00,0,,150
2012-12-13,55,42,30,22,20,17,66,47,23,30.33,30.27,30.21,10,10,9,9,5,,0.00,0,,151
2012-12-14,55,44,32,41,28,20,86,55,25,30.22,30.11,29.91,10,10,10,10,5,,0.02,2,Rain,133
2012-12-15,66,55,44,50,40,32,93,63,30,29.90,29.77,29.68,10,9,6,16,9,26,0.05,3,Rain,193
2012-12-16,60,52,45,39,36,32,71,56,35,29.75,29.70,29.63,10,10,10,6,3,,0.00,0,,179
2012-12-17,48,40,33,39,36,30,97,82,61,29.84,29.74,29.65,10,7,2,10,4,18,0.00,3,,308
2012-12-18,64,47,30,35,32,28,96,64,28,29.85,29.80,29.73,10,9,5,9,3,,0.00,0,,132
2012-12-19,61,51,41,57,48,34,94,83,65,29.86,29.71,29.46,10,8,2,15,6,23,0.35,5,Rain-Thunderstorm,132
2012-12-20,57,44,30,57,34,17,100,75,46,30.21,29.76,29.42,10,8,1,20,10,46,0.50,6,Rain-Snow-Thunderstorm,290
2012-12-21,46,38,30,17,14,12,54,41,26,30.35,30.30,30.22,10,10,7,12,6,22,0.00,0,,306
2012-12-22,63,44,26,24,18,7,88,43,11,30.28,30.15,30.01,10,10,10,10,3,16,0.00,0,,166
2012-12-23,63,54,44,47,38,21,86,59,37,29.98,29.88,29.79,10,10,8,12,5,,0.00,2,,180
2012-12-24,51,40,28,47,29,21,89,69,47,30.03,29.94,29.78,10,7,4,7,4,,0.00,0,,323
2012-12-25,32,28,23,25,22,19,86,76,64,30.10,29.95,29.86,8,5,1,17,9,34,0.00,6,Rain-Snow,24
2012-12-26,37,31,23,21,19,17,78,67,47,30.19,30.08,29.91,10,10,8,15,9,25,0.00,3,,337
2012-12-27,36,28,21,25,22,17,92,79,62,30.18,30.10,30.01,10,9,7,9,4,,0.00,2,,125
2012-12-28,35,32,28,32,29,23,100,89,72,30.03,29.94,29.86,8,5,1,8,4,20,0.03,8,Rain-Snow,350
2012-12-29,35,29,23,22,17,15,75,63,44,30.41,30.23,30.01,9,7,6,13,9,21,0.00,4,,299
2012-12-30,43,31,19,22,18,15,88,62,35,30.48,30.39,30.27,10,9,6,10,3,,0.00,0,,172
2012-12-31,35,34,32,36,33,22,100,97,61,30.28,30.11,30.01,9,3,1,8,3,,0.69,8,Rain,116